Flag for Russia Weather for the Past 2 Weeks in Petropavlovsk-Kamchatsky, Russia

Now
46 °F

Clear.


Feels Like: 41 °F
Forecast: 32 / 47 °F
Wind: 13 mph from South

Location: Petropavlovsk-Kamchatskij

Current Time: May 3, 2016 at 3:10:30 PM

Latest Report: May 3, 2016 at 2:00 PM


Visibility: N/A

Pressure: 29.86 "Hg

Humidity: 50%

Dew Point: 28 °F

Location of Petropavlovsk-KamchatskyLocation

Historic Weather in Petropavlovsk-Kamchatsky — Graph

°F

Petropavlovsk-Kamchatsky Temperature Yesterday

Maximum temperature yesterday: 45 °F (at 10:30 AM)
Minimum temperature yesterday: 32 °F (at 10:00 PM)
Average temperature yesterday: 39 °F

High & Low Weather Summary for the Past Weeks

 TemperatureHumidityPressure
High48 °F (Apr 23, 2:00 PM)93% (Apr 19, 9:00 PM)30.09 "Hg (Apr 19, 9:00 PM)
Low23 °F (Apr 21, 3:00 AM)26% (Apr 21, 6:00 PM)29.42 "Hg (May 1, 1:30 PM)
Average37 °F60%29.75 "Hg
* Reported Apr 18 1:30 PM — May 3 1:30 PM, Petropavlovsk-Kamchatsky, Weather by CustomWeather, © 2016

Note: Actual official high and low records may vary slightly from our data, if they occured in-between our weather recording intervals... More about our weather records

Advertising

Petropavlovsk-Kamchatsky Weather History for the Previous 24 Hours

Scroll right to see more
 ConditionsComfort  
Time TempWeatherWind HumidityBarometerVisibility
1:30 PM
Tue, May 3
46 °FClear.10 mph53%29.86 "HgN/A
1:00 PM46 °FClear.10 mph50%29.86 "HgN/A
12:30 PM46 °FClear.8 mph50%29.89 "HgN/A
12:00 PM45 °FClear.8 mph53%29.86 "HgN/A
11:30 AM43 °FClear.8 mph57%29.89 "HgN/A
11:00 AM43 °FClear.8 mph57%29.89 "HgN/A
10:30 AM41 °FClear.6 mph57%29.89 "HgN/A
10:00 AM39 °FClear.3 mph65%29.86 "HgN/A
9:00 AM34 °FClear.1 mph75%29.89 "HgN/A
8:30 AM32 °FClear.1 mph75%29.89 "HgN/A
8:00 AM30 °FClear.1 mph80%29.86 "HgN/A
7:30 AM28 °FClear.3 mph86%29.86 "HgN/A
7:00 AM27 °FClear.No wind80%29.86 "HgN/A
6:00 AM25 °FClear.3 mph86%29.86 "HgN/A
5:30 AM25 °FClear.3 mph86%29.83 "HgN/A
5:00 AM27 °FClear.1 mph86%29.83 "HgN/A
4:30 AM27 °FClear.3 mph86%29.83 "HgN/A
4:00 AM28 °FClear.6 mph80%29.83 "HgN/A
3:00 AM27 °FClear.1 mph86%29.83 "HgN/A
2:00 AM28 °FClear.3 mph80%29.83 "HgN/A
1:00 AM30 °FClear.3 mph80%29.83 "HgN/A
12:00 AM30 °FClear.1 mph80%29.83 "HgN/A
11:00 PM
Mon, May 2
32 °FClear.1 mph75%29.80 "HgN/A
10:00 PM32 °FClear.1 mph75%29.80 "HgN/A
9:00 PM34 °FClear.6 mph70%29.80 "HgN/A
8:30 PM36 °FClear.8 mph65%29.77 "HgN/A
8:00 PM36 °FClear.10 mph70%29.77 "HgN/A
7:30 PM37 °FClear.13 mph65%29.77 "HgN/A
7:00 PM37 °FClear.13 mph65%29.74 "HgN/A
6:30 PM37 °FClear.13 mph65%29.74 "HgN/A
5:00 PM41 °FClear.13 mph57%29.71 "HgN/A
4:30 PM41 °FClear.15 mph61%29.71 "HgN/A
4:00 PM41 °FClear.15 mph61%29.71 "HgN/A
3:30 PM43 °FClear.15 mph57%29.71 "HgN/A
Weather by CustomWeather, © 2016

See weather overviewHow to use our weather pages